Dewpoint
66 64 63 63 62 62 65 64 63 61 60 60 61 61 61 61 61 62 63 63 64 66 66 65 64 62 61 62 62 62 61 60 59 59 59 60 60 59 59 59 59 58 57
66 64 63 63 62 62 62 63 62 61 60 60 60 61 60 61 61 61 62 64 63 64 65 65 64 62 61 61 63 63 62 61 60 58 58 60 60 59 59 58 57 57 57
64 64 64 63 63 62 61 60 59 59 58 59 59 60 60 60 61 61 62 63 63 62 63 64 64 63 62 61 62 62 62 61 59 58 59 59 60 59 59 58 57 57 56
64 64 64 63 63 62 62 61 61 60 58 58 57 58 59 60 61 61 62 63 63 63 62 63 63 63 63 62 62 61 60 60 60 59 59 59 59 59 58 57 57 56 56
64 63 63 63 62 63 62 62 62 61 60 60 59 57 59 59 60 62 62 62 63 63 63 62 62 61 62 62 62 61 61 59 59 59 59 58 58 58 58 57 57 56 55
64 63 63 62 62 62 62 62 61 61 61 60 59 60 60 61 61 62 62 62 62 61 61 61 61 60 60 62 62 62 61 59 58 59 59 58 58 58 58 57 57 56 55
64 63 63 62 62 63 62 62 62 61 60 61 59 59 59 60 61 61 62 62 61 60 60 60 60 59 60 61 62 62 61 60 59 59 58 58 58 56 59 58 57 56 55
64 63 63 62 62 63 62 62 61 60 61 60 58 57 54 57 59 61 61 61 60 60 59 59 59 59 59 61 60 61 61 60 59 58 59 59 57 57 59 58 57 57 56
63 63 62 62 62 62 62 62 62 60 59 60 59 57 52 52 55 59 59 60 59 59 59 59 59 59 59 60 59 59 58 58 60 59 60 59 58 58 59 58 58 57 57
62 62 62 62 61 62 61 62 61 61 60 58 59 59 57 55 54 52 57 58 59 58 57 58 59 59 59 59 58 57 55 54 56 59 60 60 59 58 59 59 58 58 58
62 62 62 61 61 62 62 61 60 60 59 58 58 57 57 56 55 54 53 54 57 58 57 57 58 58 58 58 58 57 54 53 53 57 60 59 59 59 59 59 59 59 59
61 62 62 61 61 61 59 59 59 60 59 58 58 57 56 54 55 54 53 54 54 56 57 57 57 57 57 57 57 55 53 52 52 54 57 59 60 60 60 60 60 59 59
61 61 61 61 61 59 58 58 59 59 58 58 58 57 57 56 56 56 55 54 53 55 55 56 57 57 56 57 56 54 53 50 51 52 54 56 58 59 60 60 61 60 60
61 61 61 61 60 58 58 58 58 57 58 58 57 57 57 57 56 55 55 54 52 52 53 54 56 56 56 56 55 52 55 49 50 50 52 53 54 56 57 58 59 59 60
60 60 61 61 59 58 59 57 57 56 57 57 57 57 56 56 56 56 56 55 53 50 52 53 54 55 55 56 55 55 55 51 49 48 49 50 52 53 54 55 56 57 58
60 59 61 60 59 58 58 57 56 56 56 57 58 57 56 56 56 56 56 55 54 52 50 53 54 54 55 55 54 55 55 52 48 47 47 48 49 50 51 52 53 53 55
59 59 60 59 58 58 57 57 56 56 56 56 57 57 56 56 56 56 56 55 54 53 50 51 52 53 54 55 54 56 55 55 56 48 46 46 46 47 48 49 49 50 51
59 59 60 60 59 58 57 57 56 56 56 55 56 57 56 56 56 56 56 55 54 54 53 50 52 53 53 55 55 55 55 55 55 50 47 45 45 46 46 45 46 46 47
59 59 60 59 59 58 57 57 57 56 56 56 57 56 56 56 56 56 55 55 55 55 53 53 52 53 54 54 54 54 55 56 56 52 46 46 45 46 46 46 45 45 45
59 59 59 59 59 58 57 57 57 57 57 57 57 57 57 56 56 56 56 55 55 55 54 53 53 53 53 54 54 53 53 54 53 45 43 41 41 42 42 42 42 42 41
58 58 58 59 58 58 58 58 58 57 57 57 57 57 57 55 51 53 56 56 55 55 55 54 53 52 52 51 52 53 53 53 52 45 42 42 41 39 39 40 40 40 39
52 57 57 57 56 47 39 45 54 57 56 56 55 56 56 50 49 45 46 46 52 55 53 52 52 52 52 52 52 52 52 50 47 46 42 37 37 36 37 37 37 37 37
37 38 42 44 41 38 37 39 43 57 56 56 55 55 55 53 50 52 38 38 37 36 37 52 52 52 51 51 50 49 50 49 46 40 39 33 34 32 35 36 36 35 35
34 34 35 36 37 35 38 39 38 50 44 41 41 43 50 47 42 47 45 40 35 35 36 38 39 37 36 37 42 45 46 37 35 33 36 30 31 30 32 34 34 33 32
34 33 33 33 34 34 35 36 39 38 35 34 34 35 37 39 36 40 42 35 32 31 33 34 33 33 33 34 36 41 36 37 33 32 32 31 29 28 30 31 32 33 31
32 33 32 32 33 32 35 35 34 33 32 32 32 32 34 35 36 37 38 35 31 29 29 29 29 29 29 30 30 31 34 35 32 31 30 30 28 28 25 29 31 29 28
Lifted_Index
-3 -3 -2 -2 -2 -2 -1 -1 -1 -1 -0 0 1 1 1 1 0 -0 -0 -1 -1 -1 -1 -1 0 1 2 2 2 2 2 3 3 3 3 3 3 3 3 4 4 5 5
-3 -3 -3 -2 -2 -1 -1 -1 -1 -1 -1 -0 0 1 1 1 1 0 -0 -0 -0 -1 -1 -1 0 1 1 2 2 2 2 2 3 4 4 3 4 4 4 4 4 5 5
-3 -3 -3 -2 -2 -2 -1 -1 -1 -1 -1 -1 -0 0 1 1 1 1 0 0 0 0 -0 -0 0 1 1 1 1 1 2 2 3 3 4 4 4 4 4 4 5 5 5
-3 -3 -3 -3 -2 -2 -2 -2 -2 -2 -2 -1 -1 -0 1 1 1 1 1 1 1 1 1 1 1 1 1 1 1 1 2 2 3 3 3 4 4 4 4 5 5 5 6
-3 -3 -3 -3 -2 -2 -2 -2 -2 -2 -2 -1 -1 -0 0 1 1 1 1 1 1 1 1 1 1 1 1 0 1 1 2 3 3 3 3 4 4 4 4 5 5 6 6
-3 -3 -3 -3 -3 -3 -2 -2 -2 -2 -2 -1 -1 -0 0 1 1 1 1 1 1 1 1 1 1 1 1 0 1 1 2 3 3 3 3 4 4 5 5 5 6 6 6
-3 -3 -3 -3 -3 -3 -2 -2 -2 -2 -2 -1 -1 -0 0 1 1 1 1 1 1 1 1 1 1 1 1 1 1 1 2 2 3 3 3 4 5 5 5 5 5 6 6
-4 -3 -3 -3 -3 -3 -2 -2 -2 -1 -1 -1 -1 -0 1 1 2 1 1 1 1 1 1 1 1 1 1 1 1 1 1 2 3 3 3 4 5 5 5 5 5 6 6
-4 -3 -2 -3 -3 -3 -2 -2 -1 -1 -1 -1 -1 -0 1 2 2 2 1 1 1 1 2 2 2 1 2 2 2 2 2 2 3 3 3 4 4 5 5 5 5 5 6
-3 -3 -2 -2 -3 -3 -2 -2 -1 -1 -1 -0 -0 0 1 2 2 2 2 1 1 2 2 2 2 2 2 3 3 3 3 3 3 3 3 3 4 4 5 4 5 5 5
-4 -3 -2 -2 -3 -3 -3 -2 -1 -1 -1 -0 0 0 1 2 2 2 2 2 2 2 2 3 3 3 3 3 3 3 4 4 4 4 3 3 3 4 4 4 4 4 4
-4 -3 -3 -2 -3 -3 -3 -2 -2 -1 -0 0 0 1 1 2 2 2 2 2 2 3 3 3 3 3 3 3 4 4 4 4 4 4 4 4 3 3 3 3 3 3 4
-3 -3 -3 -3 -3 -3 -3 -2 -2 -1 -0 0 0 1 1 2 2 2 2 2 2 3 3 3 3 4 4 4 4 4 4 4 5 5 5 5 4 3 3 3 3 3 3
-3 -3 -3 -3 -3 -3 -3 -2 -2 -1 -0 0 1 1 2 3 2 2 2 2 2 3 3 4 4 4 4 4 4 4 4 5 5 5 5 5 4 4 4 3 3 3 3
-3 -3 -3 -3 -3 -3 -3 -2 -1 -0 0 1 1 2 3 3 2 2 2 2 2 3 3 4 4 4 4 4 4 4 4 4 4 4 4 4 4 4 4 4 4 3 3
-2 -3 -3 -3 -3 -3 -3 -2 -1 0 1 1 1 2 2 2 2 2 2 2 2 3 3 4 4 4 4 4 3 3 3 4 4 4 4 4 4 4 4 4 4 4 4
-2 -2 -3 -3 -3 -3 -3 -2 -1 1 1 1 1 2 2 2 2 2 2 2 2 3 3 4 4 4 3 3 3 3 3 3 3 3 3 4 4 4 4 4 4 4 4
-2 -2 -2 -3 -3 -2 -2 -2 -1 1 1 1 1 2 2 2 2 2 2 2 2 3 3 3 3 3 3 3 3 3 3 3 3 3 3 3 4 4 4 4 4 4 4
-2 -2 -2 -2 -2 -2 -2 -2 -1 0 1 1 2 2 2 2 2 2 2 2 2 2 3 3 3 3 3 3 3 2 3 3 3 3 3 3 4 4 4 4 4 4 4
-1 -1 -1 -2 -2 -2 -2 -2 -1 0 1 1 1 1 2 2 2 2 2 2 2 2 2 2 2 3 3 3 2 2 3 3 3 3 4 4 4 4 4 4 4 4 4
-1 -1 -1 -1 -1 -1 -1 -1 -0 -0 0 1 1 1 1 1 2 2 2 2 2 2 2 2 2 2 2 3 3 3 3 3 3 4 4 4 4 4 4 4 4 4 4
-0 -0 -0 -0 -0 -1 -1 -0 0 0 1 1 1 1 1 2 2 2 2 2 2 2 3 3 2 2 3 3 3 3 3 3 3 4 4 4 4 4 4 4 4 5 5
1 0 0 0 -0 -0 -0 0 0 0 1 1 1 1 2 2 2 2 2 2 3 3 3 3 3 3 3 3 4 4 4 3 3 4 4 4 4 4 5 5 6 6 6
3 2 2 1 0 0 0 1 1 1 1 2 2 2 2 2 2 3 3 3 3 4 4 4 4 4 4 4 4 4 4 4 4 4 4 4 4 4 5 7 9 9 9
6 6 5 3 2 2 1 1 1 1 2 2 2 2 2 3 3 3 3 4 4 4 4 4 4 4 4 4 3 3 4 3 3 3 3 4 4 4 6 9 12 13 13
8 8 7 6 4 4 2 1 1 2 2 2 3 3 3 3 3 3 4 4 4 4 4 4 4 3 3 3 3 3 3 3 3 3 3 3 4 4 6 9 12 14 15